owner,sensor,date,latitude,longitude,vertical_datum,wind_speed,wind_to_direction,wind_speed_of_gust,qcFlag 
TCOON,ioos:station:TCOON:003:1,2014-10-01T00:00:00Z,26.8015,-97.4706,0.0,4.3,126.0,5.1,'11111222,11111222,11111222' 
TCOON,ioos:station:TCOON:003:1,2014-10-01T00:06:00Z,26.8015,-97.4706,0.0,4.8,116.0,5.5,'11111222,11111222,11111222' 
TCOON,ioos:station:TCOON:003:1,2014-10-01T00:12:00Z,26.8015,-97.4706,0.0,5.0,118.0,5.8,'11111222,11111222,11111222' 
TCOON,ioos:station:TCOON:003:1,2014-10-01T00:18:00Z,26.8015,-97.4706,0.0,5.0,118.0,5.8,'1111122,1111122,1111122' 
TCOON,ioos:station:TCOON:003:1,2014-10-01T00:24:00Z,26.8015,-97.4706,0.0,4.1,105.0,5.0,'11111222,11111222,11111222' 
TCOON,ioos:station:TCOON:003:1,2014-10-01T00:30:00Z,26.8015,-97.4706,0.0,4.5,112.0,5.2,'11111222,11111222,11111222' 
TCOON,ioos:station:TCOON:003:1,2014-10-01T00:36:00Z,26.8015,-97.4706,0.0,4.9,122.0,5.6,'11111222,11111222,11111222' 
TCOON,ioos:station:TCOON:003:1,2014-10-01T00:42:00Z,26.8015,-97.4706,0.0,4.6,114.0,5.5,'11111222,11111222,11111222' 
TCOON,ioos:station:TCOON:003:1,2014-10-01T00:48:00Z,26.8015,-97.4706,0.0,4.0,104.0,5.0,'11111222,11111222,11111222' 
TCOON,ioos:station:TCOON:003:1,2014-10-01T00:54:00Z,26.8015,-97.4706,0.0,3.9,108.0,4.6,'11111222,11111222,11111222' 
TCOON,ioos:station:TCOON:003:1,2014-10-01T01:00:00Z,26.8015,-97.4706,0.0,4.0,107.0,5.0,'11111222,11111222,11111222' 
TCOON,ioos:station:TCOON:003:1,2014-10-01T01:06:00Z,26.8015,-97.4706,0.0,4.4,114.0,4.9,'11111222,11111222,11111222' 
TCOON,ioos:station:TCOON:003:1,2014-10-01T01:12:00Z,26.8015,-97.4706,0.0,4.5,116.0,5.3,'11111222,11111222,11111222' 
TCOON,ioos:station:TCOON:003:1,2014-10-01T01:18:00Z,26.8015,-97.4706,0.0,4.5,116.0,5.3,'1111122,1111122,1111122' 
TCOON,ioos:station:TCOON:003:1,2014-10-01T01:24:00Z,26.8015,-97.4706,0.0,5.0,118.0,5.6,'11111222,11111222,11111222' 
TCOON,ioos:station:TCOON:003:1,2014-10-01T01:30:00Z,26.8015,-97.4706,0.0,4.9,122.0,5.9,'11111222,11111222,11111222' 
TCOON,ioos:station:TCOON:003:1,2014-10-01T01:36:00Z,26.8015,-97.4706,0.0,5.6,124.0,6.0,'11111222,11111222,11111222' 
TCOON,ioos:station:TCOON:003:1,2014-10-01T01:42:00Z,26.8015,-97.4706,0.0,5.4,129.0,6.1,'11111222,11111222,11111222' 
TCOON,ioos:station:TCOON:003:1,2014-10-01T01:48:00Z,26.8015,-97.4706,0.0,4.8,126.0,5.9,'11111222,11111222,11111222' 
TCOON,ioos:station:TCOON:003:1,2014-10-01T01:54:00Z,26.8015,-97.4706,0.0,5.3,126.0,5.8,'11111222,11111222,11111222' 
TCOON,ioos:station:TCOON:003:1,2014-10-01T02:00:00Z,26.8015,-97.4706,0.0,5.5,127.0,6.6,'11111222,11111222,11111222' 
TCOON,ioos:station:TCOON:003:1,2014-10-01T02:06:00Z,26.8015,-97.4706,0.0,4.7,128.0,6.0,'11111222,11111222,11111222' 
TCOON,ioos:station:TCOON:003:1,2014-10-01T02:12:00Z,26.8015,-97.4706,0.0,5.1,133.0,6.0,'11111222,11111222,11111222' 
TCOON,ioos:station:TCOON:003:1,2014-10-01T02:18:00Z,26.8015,-97.4706,0.0,5.1,133.0,6.0,'1111122,1111122,1111122' 
TCOON,ioos:station:TCOON:003:1,2014-10-01T02:24:00Z,26.8015,-97.4706,0.0,5.2,130.0,5.8,'11111222,11111222,11111222' 
TCOON,ioos:station:TCOON:003:1,2014-10-01T02:30:00Z,26.8015,-97.4706,0.0,4.9,131.0,5.5,'11111222,11111222,11111222' 
TCOON,ioos:station:TCOON:003:1,2014-10-01T02:36:00Z,26.8015,-97.4706,0.0,4.4,135.0,5.4,'11111222,11111222,11111222' 
TCOON,ioos:station:TCOON:003:1,2014-10-01T02:42:00Z,26.8015,-97.4706,0.0,4.1,130.0,4.9,'11111222,11111222,11111222' 
TCOON,ioos:station:TCOON:003:1,2014-10-01T02:48:00Z,26.8015,-97.4706,0.0,4.1,130.0,4.5,'11111222,11111222,11111222' 
TCOON,ioos:station:TCOON:003:1,2014-10-01T02:54:00Z,26.8015,-97.4706,0.0,4.3,137.0,5.0,'11111222,11111222,11111222' 
TCOON,ioos:station:TCOON:003:1,2014-10-01T03:00:00Z,26.8015,-97.4706,0.0,4.2,144.0,4.8,'11111222,11111222,11111222' 
TCOON,ioos:station:TCOON:003:1,2014-10-01T03:06:00Z,26.8015,-97.4706,0.0,4.4,138.0,4.9,'11111222,11111222,11111222' 
TCOON,ioos:station:TCOON:003:1,2014-10-01T03:12:00Z,26.8015,-97.4706,0.0,4.7,143.0,5.6,'11111222,11111222,11111222' 
TCOON,ioos:station:TCOON:003:1,2014-10-01T03:18:00Z,26.8015,-97.4706,0.0,4.7,143.0,5.6,'1111122,1111122,1111122' 
TCOON,ioos:station:TCOON:003:1,2014-10-01T03:24:00Z,26.8015,-97.4706,0.0,5.1,144.0,5.6,'11111222,11111222,11111222' 
TCOON,ioos:station:TCOON:003:1,2014-10-01T03:30:00Z,26.8015,-97.4706,0.0,5.2,142.0,5.7,'11111222,11111222,11111222' 
TCOON,ioos:station:TCOON:003:1,2014-10-01T03:36:00Z,26.8015,-97.4706,0.0,5.6,146.0,6.3,'11111222,11111222,11111222' 
TCOON,ioos:station:TCOON:003:1,2014-10-01T03:42:00Z,26.8015,-97.4706,0.0,5.4,147.0,6.0,'11111222,11111222,11111222' 
TCOON,ioos:station:TCOON:003:1,2014-10-01T03:48:00Z,26.8015,-97.4706,0.0,5.3,147.0,6.2,'11111222,11111222,11111222' 
TCOON,ioos:station:TCOON:003:1,2014-10-01T03:54:00Z,26.8015,-97.4706,0.0,5.8,147.0,6.4,'11111222,11111222,11111222' 
TCOON,ioos:station:TCOON:003:1,2014-10-01T04:00:00Z,26.8015,-97.4706,0.0,5.3,149.0,6.2,'11111222,11111222,11111222' 
TCOON,ioos:station:TCOON:003:1,2014-10-01T04:06:00Z,26.8015,-97.4706,0.0,5.2,150.0,6.3,'11111222,11111222,11111222' 
TCOON,ioos:station:TCOON:003:1,2014-10-01T04:12:00Z,26.8015,-97.4706,0.0,5.2,145.0,5.8,'11111222,11111222,11111222' 
TCOON,ioos:station:TCOON:003:1,2014-10-01T04:18:00Z,26.8015,-97.4706,0.0,5.2,145.0,5.8,'1111122,1111122,1111122' 
TCOON,ioos:station:TCOON:003:1,2014-10-01T04:24:00Z,26.8015,-97.4706,0.0,5.3,147.0,5.9,'11111222,11111222,11111222' 
TCOON,ioos:station:TCOON:003:1,2014-10-01T04:30:00Z,26.8015,-97.4706,0.0,5.2,145.0,5.9,'11111222,11111222,11111222' 
TCOON,ioos:station:TCOON:003:1,2014-10-01T04:36:00Z,26.8015,-97.4706,0.0,5.4,146.0,5.8,'11111222,11111222,11111222' 
TCOON,ioos:station:TCOON:003:1,2014-10-01T04:42:00Z,26.8015,-97.4706,0.0,5.4,147.0,6.0,'11111222,11111222,11111222' 
TCOON,ioos:station:TCOON:003:1,2014-10-01T04:48:00Z,26.8015,-97.4706,0.0,5.0,147.0,5.7,'11111222,11111222,11111222' 
TCOON,ioos:station:TCOON:003:1,2014-10-01T04:54:00Z,26.8015,-97.4706,0.0,4.8,143.0,5.5,'11111222,11111222,11111222' 
TCOON,ioos:station:TCOON:003:1,2014-10-01T05:00:00Z,26.8015,-97.4706,0.0,4.4,146.0,5.3,'11111222,11111222,11111222' 
TCOON,ioos:station:TCOON:003:1,2014-10-01T05:06:00Z,26.8015,-97.4706,0.0,4.9,153.0,5.5,'11111222,11111222,11111222' 
TCOON,ioos:station:TCOON:003:1,2014-10-01T05:12:00Z,26.8015,-97.4706,0.0,4.0,193.0,5.8,'11111222,11111222,11111222' 
TCOON,ioos:station:TCOON:003:1,2014-10-01T05:18:00Z,26.8015,-97.4706,0.0,4.0,193.0,5.8,'1111122,1111122,1111122' 
TCOON,ioos:station:TCOON:003:1,2014-10-01T05:24:00Z,26.8015,-97.4706,0.0,3.4,193.0,4.5,'11111222,11111222,11111222' 
TCOON,ioos:station:TCOON:003:1,2014-10-01T05:30:00Z,26.8015,-97.4706,0.0,3.8,188.0,4.6,'11111222,11111222,11111222' 
TCOON,ioos:station:TCOON:003:1,2014-10-01T05:36:00Z,26.8015,-97.4706,0.0,3.5,187.0,4.4,'11111222,11111222,11111222' 
TCOON,ioos:station:TCOON:003:1,2014-10-01T05:42:00Z,26.8015,-97.4706,0.0,4.0,180.0,4.8,'11111222,11111222,11111222' 
TCOON,ioos:station:TCOON:003:1,2014-10-01T05:48:00Z,26.8015,-97.4706,0.0,3.6,176.0,4.4,'11111222,11111222,11111222' 
TCOON,ioos:station:TCOON:003:1,2014-10-01T05:54:00Z,26.8015,-97.4706,0.0,4.0,179.0,4.4,'11111222,11111222,11111222' 
TCOON,ioos:station:TCOON:003:1,2014-10-01T06:00:00Z,26.8015,-97.4706,0.0,4.2,175.0,4.9,'11111222,11111222,11111222' 
TCOON,ioos:station:TCOON:003:1,2014-10-01T06:06:00Z,26.8015,-97.4706,0.0,3.6,179.0,4.3,'11111222,11111222,11111222' 
TCOON,ioos:station:TCOON:003:1,2014-10-01T06:12:00Z,26.8015,-97.4706,0.0,4.4,187.0,5.0,'11111222,11111222,11111222' 
TCOON,ioos:station:TCOON:003:1,2014-10-01T06:18:00Z,26.8015,-97.4706,0.0,5.0,185.0,5.7,'11111222,11111222,11111222' 
TCOON,ioos:station:TCOON:003:1,2014-10-01T06:24:00Z,26.8015,-97.4706,0.0,4.5,184.0,5.4,'11111222,11111222,11111222' 
TCOON,ioos:station:TCOON:003:1,2014-10-01T06:30:00Z,26.8015,-97.4706,0.0,4.5,184.0,5.2,'11111222,11111222,11111222' 
TCOON,ioos:station:TCOON:003:1,2014-10-01T06:36:00Z,26.8015,-97.4706,0.0,5.4,179.0,6.3,'11111222,11111222,11111222' 
TCOON,ioos:station:TCOON:003:1,2014-10-01T06:42:00Z,26.8015,-97.4706,0.0,5.5,180.0,6.5,'11111222,11111222,11111222' 
TCOON,ioos:station:TCOON:003:1,2014-10-01T06:48:00Z,26.8015,-97.4706,0.0,5.7,179.0,6.4,'11111222,11111222,11111222' 
TCOON,ioos:station:TCOON:003:1,2014-10-01T06:54:00Z,26.8015,-97.4706,0.0,5.8,179.0,7.0,'11111222,11111222,11111222' 
TCOON,ioos:station:TCOON:003:1,2014-10-01T07:00:00Z,26.8015,-97.4706,0.0,5.8,179.0,7.0,'1111122,1111122,1111122' 
TCOON,ioos:station:TCOON:003:1,2014-10-01T07:06:00Z,26.8015,-97.4706,0.0,5.5,179.0,6.9,'11111222,11111222,11111222' 
TCOON,ioos:station:TCOON:003:1,2014-10-01T07:12:00Z,26.8015,-97.4706,0.0,5.5,179.0,6.9,'1111122,1111122,1111122' 
TCOON,ioos:station:TCOON:003:1,2014-10-01T07:18:00Z,26.8015,-97.4706,0.0,5.8,179.0,6.7,'11111222,11111222,11111222' 
TCOON,ioos:station:TCOON:003:1,2014-10-01T07:24:00Z,26.8015,-97.4706,0.0,5.5,181.0,6.5,'11111222,11111222,11111222' 
TCOON,ioos:station:TCOON:003:1,2014-10-01T07:30:00Z,26.8015,-97.4706,0.0,5.6,180.0,6.1,'11111222,11111222,11111222' 
TCOON,ioos:station:TCOON:003:1,2014-10-01T07:36:00Z,26.8015,-97.4706,0.0,5.1,179.0,6.0,'11111222,11111222,11111222' 
TCOON,ioos:station:TCOON:003:1,2014-10-01T07:42:00Z,26.8015,-97.4706,0.0,5.0,181.0,5.9,'11111222,11111222,11111222' 
TCOON,ioos:station:TCOON:003:1,2014-10-01T07:48:00Z,26.8015,-97.4706,0.0,5.2,182.0,6.3,'11111222,11111222,11111222' 
TCOON,ioos:station:TCOON:003:1,2014-10-01T07:54:00Z,26.8015,-97.4706,0.0,5.3,182.0,5.9,'11111222,11111222,11111222' 
TCOON,ioos:station:TCOON:003:1,2014-10-01T08:00:00Z,26.8015,-97.4706,0.0,4.8,180.0,6.1,'11111222,11111222,11111222' 
TCOON,ioos:station:TCOON:003:1,2014-10-01T08:06:00Z,26.8015,-97.4706,0.0,5.0,180.0,5.8,'11111222,11111222,11111222' 
TCOON,ioos:station:TCOON:003:1,2014-10-01T08:12:00Z,26.8015,-97.4706,0.0,5.0,180.0,5.8,'1111122,1111122,1111122' 
TCOON,ioos:station:TCOON:003:1,2014-10-01T08:18:00Z,26.8015,-97.4706,0.0,5.0,179.0,6.0,'11111222,11111222,11111222' 
TCOON,ioos:station:TCOON:003:1,2014-10-01T08:24:00Z,26.8015,-97.4706,0.0,5.2,183.0,5.8,'11111222,11111222,11111222' 
TCOON,ioos:station:TCOON:003:1,2014-10-01T08:30:00Z,26.8015,-97.4706,0.0,5.0,181.0,5.8,'11111222,11111222,11111222' 
TCOON,ioos:station:TCOON:003:1,2014-10-01T08:36:00Z,26.8015,-97.4706,0.0,5.0,182.0,5.9,'11111222,11111222,11111222' 
TCOON,ioos:station:TCOON:003:1,2014-10-01T08:42:00Z,26.8015,-97.4706,0.0,4.6,184.0,5.5,'11111222,11111222,11111222' 
TCOON,ioos:station:TCOON:003:1,2014-10-01T08:48:00Z,26.8015,-97.4706,0.0,4.7,186.0,5.7,'11111222,11111222,11111222' 
TCOON,ioos:station:TCOON:003:1,2014-10-01T08:54:00Z,26.8015,-97.4706,0.0,4.0,185.0,5.3,'11111222,11111222,11111222' 
TCOON,ioos:station:TCOON:003:1,2014-10-01T09:00:00Z,26.8015,-97.4706,0.0,4.3,182.0,5.2,'11111222,11111222,11111222' 
TCOON,ioos:station:TCOON:003:1,2014-10-01T09:06:00Z,26.8015,-97.4706,0.0,4.2,183.0,5.0,'11111222,11111222,11111222' 
TCOON,ioos:station:TCOON:003:1,2014-10-01T09:12:00Z,26.8015,-97.4706,0.0,4.2,183.0,5.0,'1111122,1111122,1111122' 
TCOON,ioos:station:TCOON:003:1,2014-10-01T09:18:00Z,26.8015,-97.4706,0.0,3.9,179.0,4.7,'11111222,11111222,11111222' 
TCOON,ioos:station:TCOON:003:1,2014-10-01T09:24:00Z,26.8015,-97.4706,0.0,4.2,180.0,5.0,'11111222,11111222,11111222' 
TCOON,ioos:station:TCOON:003:1,2014-10-01T09:30:00Z,26.8015,-97.4706,0.0,4.1,173.0,4.7,'11111222,11111222,11111222' 
TCOON,ioos:station:TCOON:003:1,2014-10-01T09:36:00Z,26.8015,-97.4706,0.0,4.5,177.0,5.4,'11111222,11111222,11111222' 
TCOON,ioos:station:TCOON:003:1,2014-10-01T09:42:00Z,26.8015,-97.4706,0.0,4.9,174.0,5.7,'11111222,11111222,11111222' 
TCOON,ioos:station:TCOON:003:1,2014-10-01T09:48:00Z,26.8015,-97.4706,0.0,5.4,172.0,6.1,'11111222,11111222,11111222' 
TCOON,ioos:station:TCOON:003:1,2014-10-01T09:54:00Z,26.8015,-97.4706,0.0,5.4,172.0,6.1,'11111222,11111222,11111222' 
TCOON,ioos:station:TCOON:003:1,2014-10-01T10:00:00Z,26.8015,-97.4706,0.0,5.1,174.0,6.2,'11111222,11111222,11111222' 
TCOON,ioos:station:TCOON:003:1,2014-10-01T10:06:00Z,26.8015,-97.4706,0.0,5.3,171.0,6.4,'11111222,11111222,11111222' 
TCOON,ioos:station:TCOON:003:1,2014-10-01T10:12:00Z,26.8015,-97.4706,0.0,5.3,171.0,6.4,'1111122,1111122,1111122' 
TCOON,ioos:station:TCOON:003:1,2014-10-01T10:18:00Z,26.8015,-97.4706,0.0,4.8,175.0,5.7,'11111222,11111222,11111222' 
TCOON,ioos:station:TCOON:003:1,2014-10-01T10:24:00Z,26.8015,-97.4706,0.0,5.0,172.0,5.5,'11111222,11111222,11111222' 
TCOON,ioos:station:TCOON:003:1,2014-10-01T10:30:00Z,26.8015,-97.4706,0.0,4.7,175.0,5.4,'11111222,11111222,11111222' 
TCOON,ioos:station:TCOON:003:1,2014-10-01T10:36:00Z,26.8015,-97.4706,0.0,4.4,177.0,5.4,'11111222,11111222,11111222' 
TCOON,ioos:station:TCOON:003:1,2014-10-01T10:42:00Z,26.8015,-97.4706,0.0,4.8,182.0,5.6,'11111222,11111222,11111222' 
TCOON,ioos:station:TCOON:003:1,2014-10-01T10:48:00Z,26.8015,-97.4706,0.0,4.7,180.0,5.4,'11111222,11111222,11111222' 
TCOON,ioos:station:TCOON:003:1,2014-10-01T10:54:00Z,26.8015,-97.4706,0.0,4.7,179.0,5.4,'11111222,11111222,11111222' 
TCOON,ioos:station:TCOON:003:1,2014-10-01T11:00:00Z,26.8015,-97.4706,0.0,4.8,177.0,5.3,'11111222,11111222,11111222' 
TCOON,ioos:station:TCOON:003:1,2014-10-01T11:06:00Z,26.8015,-97.4706,0.0,4.8,173.0,5.3,'11111222,11111222,11111222' 
TCOON,ioos:station:TCOON:003:1,2014-10-01T11:12:00Z,26.8015,-97.4706,0.0,4.8,173.0,5.3,'1111122,1111122,1111122' 
TCOON,ioos:station:TCOON:003:1,2014-10-01T11:18:00Z,26.8015,-97.4706,0.0,5.0,171.0,5.4,'11111222,11111222,11111222' 
TCOON,ioos:station:TCOON:003:1,2014-10-01T11:24:00Z,26.8015,-97.4706,0.0,5.1,174.0,5.7,'11111222,11111222,11111222' 
TCOON,ioos:station:TCOON:003:1,2014-10-01T11:30:00Z,26.8015,-97.4706,0.0,4.5,175.0,5.7,'11111222,11111222,11111222' 
TCOON,ioos:station:TCOON:003:1,2014-10-01T11:36:00Z,26.8015,-97.4706,0.0,4.7,172.0,5.4,'11111222,11111222,11111222' 
TCOON,ioos:station:TCOON:003:1,2014-10-01T11:42:00Z,26.8015,-97.4706,0.0,4.1,171.0,5.0,'11111222,11111222,11111222' 
TCOON,ioos:station:TCOON:003:1,2014-10-01T11:48:00Z,26.8015,-97.4706,0.0,4.5,168.0,4.9,'11111222,11111222,11111222' 
TCOON,ioos:station:TCOON:003:1,2014-10-01T11:54:00Z,26.8015,-97.4706,0.0,4.4,168.0,4.9,'11111222,11111222,11111222' 
TCOON,ioos:station:TCOON:003:1,2014-10-01T12:00:00Z,26.8015,-97.4706,0.0,4.3,168.0,5.0,'11111222,11111222,11111222' 
TCOON,ioos:station:TCOON:003:1,2014-10-01T12:06:00Z,26.8015,-97.4706,0.0,3.9,173.0,4.7,'11111222,11111222,11111222' 
TCOON,ioos:station:TCOON:003:1,2014-10-01T12:12:00Z,26.8015,-97.4706,0.0,4.0,167.0,4.5,'11111222,11111222,11111222' 
TCOON,ioos:station:TCOON:003:1,2014-10-01T12:18:00Z,26.8015,-97.4706,0.0,4.0,167.0,4.5,'1111122,1111122,1111122' 
TCOON,ioos:station:TCOON:003:1,2014-10-01T12:24:00Z,26.8015,-97.4706,0.0,3.7,170.0,4.6,'11111222,11111222,11111222' 
TCOON,ioos:station:TCOON:003:1,2014-10-01T12:30:00Z,26.8015,-97.4706,0.0,3.8,168.0,4.4,'11111222,11111222,11111222' 
TCOON,ioos:station:TCOON:003:1,2014-10-01T12:36:00Z,26.8015,-97.4706,0.0,3.9,172.0,4.4,'11111222,11111222,11111222' 
TCOON,ioos:station:TCOON:003:1,2014-10-01T12:42:00Z,26.8015,-97.4706,0.0,3.9,175.0,4.3,'11111222,11111222,11111222' 
TCOON,ioos:station:TCOON:003:1,2014-10-01T12:48:00Z,26.8015,-97.4706,0.0,3.3,176.0,4.2,'11111222,11111222,11111222' 
TCOON,ioos:station:TCOON:003:1,2014-10-01T12:54:00Z,26.8015,-97.4706,0.0,2.9,190.0,3.8,'11111222,11111222,11111222' 
TCOON,ioos:station:TCOON:003:1,2014-10-01T13:00:00Z,26.8015,-97.4706,0.0,2.6,190.0,3.1,'11111222,11111222,11111222' 
TCOON,ioos:station:TCOON:003:1,2014-10-01T13:06:00Z,26.8015,-97.4706,0.0,3.0,179.0,3.3,'11111222,11111222,11111222' 
TCOON,ioos:station:TCOON:003:1,2014-10-01T13:12:00Z,26.8015,-97.4706,0.0,3.0,179.0,3.3,'1111122,1111122,1111122' 
TCOON,ioos:station:TCOON:003:1,2014-10-01T13:18:00Z,26.8015,-97.4706,0.0,3.7,177.0,4.1,'11111222,11111222,11111222' 
TCOON,ioos:station:TCOON:003:1,2014-10-01T13:24:00Z,26.8015,-97.4706,0.0,3.9,170.0,4.3,'11111222,11111222,11111222' 
TCOON,ioos:station:TCOON:003:1,2014-10-01T13:30:00Z,26.8015,-97.4706,0.0,4.2,167.0,4.6,'11111222,11111222,11111222' 
TCOON,ioos:station:TCOON:003:1,2014-10-01T13:36:00Z,26.8015,-97.4706,0.0,4.1,164.0,4.6,'11111222,11111222,11111222' 
TCOON,ioos:station:TCOON:003:1,2014-10-01T13:42:00Z,26.8015,-97.4706,0.0,4.1,164.0,4.7,'11111222,11111222,11111222' 
TCOON,ioos:station:TCOON:003:1,2014-10-01T13:48:00Z,26.8015,-97.4706,0.0,4.0,163.0,4.7,'11111222,11111222,11111222' 
TCOON,ioos:station:TCOON:003:1,2014-10-01T13:54:00Z,26.8015,-97.4706,0.0,4.4,162.0,4.8,'11111222,11111222,11111222' 
TCOON,ioos:station:TCOON:003:1,2014-10-01T14:00:00Z,26.8015,-97.4706,0.0,4.0,165.0,5.0,'11111222,11111222,11111222' 
TCOON,ioos:station:TCOON:003:1,2014-10-01T14:06:00Z,26.8015,-97.4706,0.0,4.2,163.0,4.6,'11111222,11111222,11111222' 
TCOON,ioos:station:TCOON:003:1,2014-10-01T14:12:00Z,26.8015,-97.4706,0.0,4.2,163.0,4.6,'1111122,1111122,1111122' 
TCOON,ioos:station:TCOON:003:1,2014-10-01T14:18:00Z,26.8015,-97.4706,0.0,4.3,165.0,4.7,'11111222,11111222,11111222' 
TCOON,ioos:station:TCOON:003:1,2014-10-01T14:24:00Z,26.8015,-97.4706,0.0,3.9,167.0,4.5,'11111222,11111222,11111222' 
TCOON,ioos:station:TCOON:003:1,2014-10-01T14:30:00Z,26.8015,-97.4706,0.0,4.2,165.0,4.7,'11111222,11111222,11111222' 
TCOON,ioos:station:TCOON:003:1,2014-10-01T14:36:00Z,26.8015,-97.4706,0.0,4.6,163.0,5.2,'11111222,11111222,11111222' 
TCOON,ioos:station:TCOON:003:1,2014-10-01T14:42:00Z,26.8015,-97.4706,0.0,4.4,164.0,5.2,'11111222,11111222,11111222' 
TCOON,ioos:station:TCOON:003:1,2014-10-01T14:48:00Z,26.8015,-97.4706,0.0,4.0,159.0,4.7,'11111222,11111222,11111222' 
TCOON,ioos:station:TCOON:003:1,2014-10-01T14:54:00Z,26.8015,-97.4706,0.0,4.0,156.0,4.9,'11111222,11111222,11111222' 
TCOON,ioos:station:TCOON:003:1,2014-10-01T15:00:00Z,26.8015,-97.4706,0.0,4.4,154.0,4.9,'11111222,11111222,11111222' 
TCOON,ioos:station:TCOON:003:1,2014-10-01T15:06:00Z,26.8015,-97.4706,0.0,3.2,150.0,4.5,'11111222,11111222,11111222' 
TCOON,ioos:station:TCOON:003:1,2014-10-01T15:12:00Z,26.8015,-97.4706,0.0,3.2,150.0,4.5,'1111122,1111122,1111122' 
TCOON,ioos:station:TCOON:003:1,2014-10-01T15:18:00Z,26.8015,-97.4706,0.0,4.1,149.0,4.9,'11111222,11111222,11111222' 
TCOON,ioos:station:TCOON:003:1,2014-10-01T15:24:00Z,26.8015,-97.4706,0.0,3.7,150.0,4.4,'11111222,11111222,11111222' 
TCOON,ioos:station:TCOON:003:1,2014-10-01T15:30:00Z,26.8015,-97.4706,0.0,3.8,153.0,4.4,'11111222,11111222,11111222' 
TCOON,ioos:station:TCOON:003:1,2014-10-01T15:36:00Z,26.8015,-97.4706,0.0,3.9,151.0,4.4,'11111222,11111222,11111222' 
TCOON,ioos:station:TCOON:003:1,2014-10-01T15:42:00Z,26.8015,-97.4706,0.0,4.0,147.0,4.7,'11111222,11111222,11111222' 
TCOON,ioos:station:TCOON:003:1,2014-10-01T15:48:00Z,26.8015,-97.4706,0.0,4.1,147.0,4.9,'11111222,11111222,11111222' 
TCOON,ioos:station:TCOON:003:1,2014-10-01T15:54:00Z,26.8015,-97.4706,0.0,4.0,145.0,4.7,'11111222,11111222,11111222' 
TCOON,ioos:station:TCOON:003:1,2014-10-01T16:00:00Z,26.8015,-97.4706,0.0,3.9,147.0,4.7,'11111222,11111222,11111222' 
TCOON,ioos:station:TCOON:003:1,2014-10-01T16:06:00Z,26.8015,-97.4706,0.0,4.9,146.0,5.4,'11111222,11111222,11111222' 
TCOON,ioos:station:TCOON:003:1,2014-10-01T16:12:00Z,26.8015,-97.4706,0.0,5.1,146.0,5.7,'11111222,11111222,11111222' 
TCOON,ioos:station:TCOON:003:1,2014-10-01T16:18:00Z,26.8015,-97.4706,0.0,5.1,146.0,5.7,'1111122,1111122,1111122' 
TCOON,ioos:station:TCOON:003:1,2014-10-01T16:24:00Z,26.8015,-97.4706,0.0,4.6,143.0,5.7,'11111222,11111222,11111222' 
TCOON,ioos:station:TCOON:003:1,2014-10-01T16:30:00Z,26.8015,-97.4706,0.0,5.0,143.0,5.5,'11111222,11111222,11111222' 
TCOON,ioos:station:TCOON:003:1,2014-10-01T16:36:00Z,26.8015,-97.4706,0.0,5.2,141.0,5.6,'11111222,11111222,11111222' 
TCOON,ioos:station:TCOON:003:1,2014-10-01T16:42:00Z,26.8015,-97.4706,0.0,4.8,137.0,5.7,'11111222,11111222,11111222' 
TCOON,ioos:station:TCOON:003:1,2014-10-01T16:48:00Z,26.8015,-97.4706,0.0,5.1,137.0,5.9,'11111222,11111222,11111222' 
TCOON,ioos:station:TCOON:003:1,2014-10-01T16:54:00Z,26.8015,-97.4706,0.0,4.9,137.0,5.6,'11111222,11111222,11111222' 
TCOON,ioos:station:TCOON:003:1,2014-10-01T17:00:00Z,26.8015,-97.4706,0.0,5.0,138.0,5.6,'11111222,11111222,11111222' 
TCOON,ioos:station:TCOON:003:1,2014-10-01T17:06:00Z,26.8015,-97.4706,0.0,4.8,141.0,5.7,'11111222,11111222,11111222' 
TCOON,ioos:station:TCOON:003:1,2014-10-01T17:12:00Z,26.8015,-97.4706,0.0,5.0,142.0,6.0,'11111222,11111222,11111222' 
TCOON,ioos:station:TCOON:003:1,2014-10-01T17:18:00Z,26.8015,-97.4706,0.0,5.0,142.0,6.0,'1111122,1111122,1111122' 
TCOON,ioos:station:TCOON:003:1,2014-10-01T17:24:00Z,26.8015,-97.4706,0.0,5.5,141.0,6.1,'11111222,11111222,11111222' 
TCOON,ioos:station:TCOON:003:1,2014-10-01T17:30:00Z,26.8015,-97.4706,0.0,5.1,145.0,5.9,'11111222,11111222,11111222' 
TCOON,ioos:station:TCOON:003:1,2014-10-01T17:36:00Z,26.8015,-97.4706,0.0,5.1,142.0,5.8,'11111222,11111222,11111222' 
TCOON,ioos:station:TCOON:003:1,2014-10-01T17:42:00Z,26.8015,-97.4706,0.0,5.4,142.0,6.0,'11111222,11111222,11111222' 
TCOON,ioos:station:TCOON:003:1,2014-10-01T17:48:00Z,26.8015,-97.4706,0.0,5.8,141.0,6.5,'11111222,11111222,11111222' 
TCOON,ioos:station:TCOON:003:1,2014-10-01T17:54:00Z,26.8015,-97.4706,0.0,5.8,143.0,6.4,'11111222,11111222,11111222' 
TCOON,ioos:station:TCOON:003:1,2014-10-01T18:00:00Z,26.8015,-97.4706,0.0,5.1,144.0,6.3,'11111222,11111222,11111222' 
TCOON,ioos:station:TCOON:003:1,2014-10-01T18:06:00Z,26.8015,-97.4706,0.0,5.7,144.0,6.6,'11111222,11111222,11111222' 
TCOON,ioos:station:TCOON:003:1,2014-10-01T18:12:00Z,26.8015,-97.4706,0.0,5.3,140.0,6.7,'11111222,11111222,11111222' 
TCOON,ioos:station:TCOON:003:1,2014-10-01T18:18:00Z,26.8015,-97.4706,0.0,5.3,140.0,6.7,'1111122,1111122,1111122' 
TCOON,ioos:station:TCOON:003:1,2014-10-01T18:24:00Z,26.8015,-97.4706,0.0,5.9,143.0,6.6,'11111222,11111222,11111222' 
TCOON,ioos:station:TCOON:003:1,2014-10-01T18:30:00Z,26.8015,-97.4706,0.0,5.4,143.0,6.0,'11111222,11111222,11111222' 
TCOON,ioos:station:TCOON:003:1,2014-10-01T18:36:00Z,26.8015,-97.4706,0.0,4.9,144.0,5.9,'11111222,11111222,11111222' 
TCOON,ioos:station:TCOON:003:1,2014-10-01T18:42:00Z,26.8015,-97.4706,0.0,5.4,148.0,6.1,'11111222,11111222,11111222' 
TCOON,ioos:station:TCOON:003:1,2014-10-01T18:48:00Z,26.8015,-97.4706,0.0,5.5,150.0,6.1,'11111222,11111222,11111222' 
TCOON,ioos:station:TCOON:003:1,2014-10-01T18:54:00Z,26.8015,-97.4706,0.0,5.6,150.0,6.6,'11111222,11111222,11111222' 
TCOON,ioos:station:TCOON:003:1,2014-10-01T19:00:00Z,26.8015,-97.4706,0.0,5.6,154.0,6.6,'11111222,11111222,11111222' 
TCOON,ioos:station:TCOON:003:1,2014-10-01T19:06:00Z,26.8015,-97.4706,0.0,6.3,153.0,6.8,'11111222,11111222,11111222' 
TCOON,ioos:station:TCOON:003:1,2014-10-01T19:12:00Z,26.8015,-97.4706,0.0,6.3,153.0,6.8,'1111122,1111122,1111122' 
TCOON,ioos:station:TCOON:003:1,2014-10-01T19:18:00Z,26.8015,-97.4706,0.0,5.5,150.0,6.8,'11111222,11111222,11111222' 
TCOON,ioos:station:TCOON:003:1,2014-10-01T19:24:00Z,26.8015,-97.4706,0.0,6.3,152.0,6.9,'11111222,11111222,11111222' 
TCOON,ioos:station:TCOON:003:1,2014-10-01T19:30:00Z,26.8015,-97.4706,0.0,6.2,150.0,7.7,'11111222,11111222,11111222' 
TCOON,ioos:station:TCOON:003:1,2014-10-01T19:36:00Z,26.8015,-97.4706,0.0,6.3,154.0,7.0,'11111222,11111222,11111222' 
TCOON,ioos:station:TCOON:003:1,2014-10-01T19:42:00Z,26.8015,-97.4706,0.0,6.1,153.0,7.4,'11111222,11111222,11111222' 
TCOON,ioos:station:TCOON:003:1,2014-10-01T19:48:00Z,26.8015,-97.4706,0.0,6.4,152.0,7.8,'11111222,11111222,11111222' 
TCOON,ioos:station:TCOON:003:1,2014-10-01T19:54:00Z,26.8015,-97.4706,0.0,6.7,151.0,7.5,'11111222,11111222,11111222' 
TCOON,ioos:station:TCOON:003:1,2014-10-01T20:00:00Z,26.8015,-97.4706,0.0,6.7,151.0,7.9,'11111222,11111222,11111222' 
TCOON,ioos:station:TCOON:003:1,2014-10-01T20:06:00Z,26.8015,-97.4706,0.0,7.3,141.0,8.5,'11111222,11111222,11111222' 
TCOON,ioos:station:TCOON:003:1,2014-10-01T20:12:00Z,26.8015,-97.4706,0.0,7.6,141.0,9.1,'11111222,11111222,11111222' 
TCOON,ioos:station:TCOON:003:1,2014-10-01T20:18:00Z,26.8015,-97.4706,0.0,7.6,141.0,9.1,'1111122,1111122,1111122' 